Regional Weather Roundup
Issued by NWS

Home | Current Version | Previous Version | Graphics & Text | Print | Product List | Glossary On
Versions: 1 2 3 4 5 6 7 8 9 10 11 12 13 14 15 16 17 18 19 20 21 22 23 24 25 26 27 28 29 30 31 32 33 34 35 36 37 38 39 40 41 42 43 44 45 46 47 48 49 50
000
ASUS43 KMKX 200300
RWRWI

WISCONSIN REGIONAL WEATHER ROUNDUP
NATIONAL WEATHER SERVICE MILWAUKEE/SULLIVAN WI
900 PM CST THU JAN 19 2017

NOTE: "FAIR" INDICATES FEW OR NO CLOUDS BELOW 12,000 FEET WITH NO
SIGNIFICANT WEATHER AND/OR OBSTRUCTIONS TO VISIBILITY.

WIZ001-002-006>008-014>016-023>028-200400-
NORTHWEST WISCONSIN

CITY           SKY/WX    TMP DP  RH WIND       PRES   REMARKS
SUPERIOR ARPT  CLOUDY    30  30 100 CALM      29.76S FOG
ASHLAND        PTCLDY    33  29  85 S3        29.77F
HAYWARD        MOCLDY    34  30  85 SE3       29.76F
SIREN          CLOUDY    38  32  79 CALM      29.75S
CUMBERLAND     CLOUDY    36  30  80 SE6       29.75S WCI  31
RICE LAKE      CLOUDY    36  32  86 E5        29.76F WCI  32
CHETEK         CLOUDY    35  32  89 CALM      29.76F
LADYSMITH      CLOUDY    35  32  89 E5        29.77F WCI  31
EAU CLAIRE     NOT AVBL
MENOMONIE        N/A    N/A N/A N/A MISG        N/A
NEW RICHMOND   CLOUDY    36  31  83 SE3       29.74S
OSCEOLA        LGT RAIN  37  32  83 E6        29.77S WCI  32
$$

WIZ003>005-009-010-017-018-200400-
NORTH CENTRAL WISCONSIN

CITY           SKY/WX    TMP DP  RH WIND       PRES   REMARKS
MANITOWISH WTR NOT AVBL
ARBOR VITAE    CLEAR     32  30  93 CALM      29.78F FOG
WOODRUFF       CLEAR     32  30  93 CALM      29.78F FOG
RHINELANDER    CLOUDY    29  28  96 CALM      29.77F FOG
EAGLE RIVER    CLOUDY    28  28  99 CALM      29.78F
LAND O LAKES   CLEAR     31  31  99 CALM      29.81S
PHILLIPS       MOCLDY    32  30  92 S5        29.76F WCI  28
TOMAHAWK       FOG       31  30  96 CALM      29.79F VSB 1/2
MEDFORD        FOG       31  31  99 NE5       29.76F VSB 1/2 WCI  26
MERRILL        FOG       31  31 100 CALM        N/A  VSB 1/2
$$

WIZ029-030-035-036-043>047-200400-
CENTRAL WISCONSIN

CITY           SKY/WX    TMP DP  RH WIND       PRES   REMARKS
WAUSAU         FOG       31  31 100 E3        29.77F VSB 1/2
MOSINEE        FOG       30  30 100 E3        29.79F VSB 1/4
MARSHFIELD     MOCLDY    32  31  96 E6        29.76S FOG     WCI  26
STEVENS POINT  CLOUDY    30  30 100 E3        29.80F FOG
WAUPACA        FOG       33  32  96 CALM      29.83F VSB 1/2
WAUTOMA        MIX PCPN  32  31  96 E6        29.82S FOG     WCI  26
WISC RAPIDS    CLOUDY    34  32  92 E6        29.79F WCI  29
CAMP DOUGLAS   LGT RAIN  34  32  93 E5        29.77S WCI  30
$$

WIZ011>013-019>022-031-037>040-048>050-200400-
NORTHEAST WISCONSIN

CITY           SKY/WX    TMP DP  RH WIND       PRES   REMARKS
ANTIGO         CLOUDY    29  29 100 NE3       29.79F FOG
SHAWANO        FOG       32  31  96 SE5       29.85S VSB 1/4 WCI  28
OCONTO         NOT AVBL
STURGEON BAY   FOG       32  31  96 SE3       29.86F VSB 1/2
GREEN BAY      FOG       34  34 100 E3        29.83F VSB 1/4
MANITOWOC      NOT AVBL
APPLETON       FOG       30  30 100 E5        29.80F VSB 1/4 WCI  25
CLINTONVILLE   FOG       32  32 100 CALM      29.83F VSB 1/2
OSHKOSH        CLOUDY    33  31  92 NE3       29.81F FOG
$$

WIZ032>034-041-042-053>061-200400-
SOUTHWEST WISCONSIN

CITY           SKY/WX    TMP DP  RH WIND       PRES   REMARKS
LA CROSSE      LGT RAIN  39  35  86 E5        29.76S FOG
SPARTA         LGT RAIN  34  34  99 E3        29.78S
VIROQUA        CLOUDY    34  34 100 SE8       29.74F WCI  27
BOSCOBEL       LGT RAIN  36  35  96 NE3       29.77S FOG
PRAIRIE DU CHI CLOUDY    36  35  96 E6        29.74F FOG     WCI  31
PLATTEVILLE    CLOUDY    35  35 100 E9        29.75S WCI  28
$$

WIZ056-057-062-063-064-067-068-200400-
SOUTH CENTRAL WISCONSIN

CITY           SKY/WX    TMP DP  RH WIND       PRES   REMARKS
REEDSBURG      RAIN      34  34 100 E3        29.77F
BARABOO/DELLS  LGT RAIN  33  33  98 E5        29.77F VSB 1   WCI  29
LONE ROCK      NOT AVBL
MINERAL POINT  LGT RAIN  36  36 100 E9        29.75F WCI  29
MADISON        CLOUDY    35  34  96 E3        29.80S FOG
MIDDLETON      CLOUDY    36  36 100 CALM      29.80S
WATERTOWN      DRIZZLE   35  35 100 E3        29.80F
MONROE         SNOW      34  34 100 E7        29.76F VSB 1/2 WCI  28
JANESVILLE     LGT RAIN  37  37 100 E8        29.78F FOG     WCI  31
$$

WIZ051-052-058>065-066-070>072-200400-
SOUTHEAST WISCONSIN

CITY           SKY/WX    TMP DP  RH WIND       PRES   REMARKS
MILWAUKEE      LGT RAIN  38  36  92 SE6       29.82F VSB 1/4 WCI  33
WAUKESHA       DRIZZLE   34  34 100 E6        29.82S WCI  29
MILWAUKEE/TIMM LGT RAIN  36  34  93 E5        29.83S VSB 1/2 WCI  32
RACINE         LGT RAIN  37  36  96 E5        29.83F FOG     WCI  33
KENOSHA        LGT RAIN  38  36  92 E9        29.80F FOG     WCI  31
FOND DU LAC    CLOUDY    34  31  88 CALM      29.81F FOG
SHEBOYGAN      FOG       33  32  96 CALM      29.83F VSB 1/4
WEST BEND      FOG       32  32 100 CALM      29.82F VSB 1/4
JUNEAU         RAIN      33  33  99 CALM      29.81F
$$

LSZ147-162-200400-
LAKE SUPERIOR

STATION/POSITION TIME  TEMP    WIND        PRES    WAVE
                       AIR SEA DIR/SP/G            HT/PER
                 (UTC) (F)     (DEG/KT/KT) (MB)    (FT/S)
DEVILS ISLAND    0200   37     140/  4/  5 1008.5F
PORT WING        0240   37     170/  2/  6 1007.8F
SAXON HARBOR     0240   31     210/  3/  3 1008.1F
$$

LMZ867-665-643>646-200400-
LAKE MICHIGAN

STATION/POSITION TIME  TEMP    WIND        PRES    WAVE
                       AIR SEA DIR/SP/G            HT/PER
                 (UTC) (F)     (DEG/KT/KT) (MB)    (FT/S)
NORTHPORT PIER   0240   32        CALM     1011.5F
SISTER BAY       0220   32     200/  5/  5   N/A
KEWAUNEE LAKESHO 0230   33      CALM  /  2 1010.7F
SHEBOYGAN LAKESH 0200   34        CALM     1011.2F
PORT WASHINGTON  0230   36     100/  3/  4 1011.5S
MILWAUKEE LAKESH 0230   35      60/  2/  2   N/A
KENOSHA   LAKESH 0200   35        CALM     1010.8
$$

TC  - TEMPERATURE IN CELSIUS
VSB - VISIBILITY IN STATUTE MILES
WCI - WIND CHILL INDEX
HX  - HEAT INDEX





USA.gov is the U.S. government's official web portal to all federal, state and local government web resources and services.